Overview Statistics Trail Chart Weather Telemetry Raw packets
 

This is the latest recevied weather packets stored in our database for station/object N0KWA. If no packets are shown the sender has not sent any weather packets the latest 10 day(s).

<< 81 82 83 84 85 86 87 >>
Time Temp. Humidity Pressure Rain* Wind** Luminosity Snow
1787837363 21.67° C 99% 1017.8 hPa 10.67 mm - 0 W/m² -
1787837059 21.67° C 99% 1018.1 hPa 11.94 mm - 0 W/m² -
1787836758 21.67° C 99% 1018.1 hPa 10.67 mm - 0 W/m² -
1787836453 21.67° C 99% 1018 hPa 8.89 mm - 0 W/m² -
1787836148 21.67° C 99% 1018.1 hPa 8.89 mm - 0 W/m² -
1787835843 21.67° C 99% 1018.2 hPa 7.87 mm - 0 W/m² -
1787835543 21.67° C 99% 1018.2 hPa 6.1 mm - 0 W/m² -
1787835238 21.67° C 99% 1018.2 hPa 7.87 mm - 0 W/m² -
1787834933 21.67° C 99% 1018.2 hPa 7.11 mm - 0 W/m² -
1787834632 21.67° C 99% 1018.6 hPa 7.87 mm - 0 W/m² -
1787834327 21.67° C 99% 1018.2 hPa 6.1 mm - 0 W/m² -
1787834023 21.67° C 99% 1018.5 hPa 6.1 mm - 0 W/m² -
1787833718 21.67° C 99% 1018.4 hPa 7.87 mm - 0 W/m² -
1787833414 21.67° C 99% 1018.3 hPa 8.89 mm - 0 W/m² -
1787833109 21.67° C 99% 1018.3 hPa 10.67 mm - 0 W/m² -
1787832804 21.67° C 99% 1018.5 hPa 7.87 mm - 0 W/m² -
1787832500 21.67° C 99% 1018.5 hPa 6.1 mm - 0 W/m² -
1787832193 21.67° C 99% 1018.7 hPa 4.83 mm - 0 W/m² -
1787831891 21.67° C 99% 1018.9 hPa 3.05 mm - 0 W/m² -
1787831586 21.67° C 99% 1018.9 hPa 3.05 mm - 0 W/m² -
1787831285 21.67° C 99% 1019 hPa 4.83 mm - 0 W/m² -
1787830983 21.67° C 99% 1019 hPa 8.89 mm - 0 W/m² -
1787830682 21.67° C 99% 1018.9 hPa 13.72 mm - 0 W/m² -
1787830380 21.67° C 99% 1019.2 hPa 12.7 mm - 0 W/m² -
1787830075 21.67° C 99% 1019.1 hPa 21.59 mm - 0 W/m² -

* Rain latest hour (hover to see other rain measurements)
** Current wind speed in m/s (hover to see current wind gust speed)